Temp
78 78 78 77 73 72 75 76 75 75 76 76 77 77 77 75 74 73 73 74 74 73 73 73 74 74 73 73 73 73 72 70 68 71 71 75 75 76 79 78 78 77 78
79 78 77 77 77 72 73 75 75 75 75 77 76 78 78 76 75 73 73 76 74 73 74 73 74 78 74 73 72 72 72 72 71 69 70 73 74 76 76 76 79 82 78
79 78 78 77 77 78 76 72 73 75 75 75 76 77 77 76 75 74 74 74 74 74 75 74 74 74 73 74 74 73 73 74 72 70 71 72 72 74 74 74 75 76 78
77 78 77 77 78 79 79 75 73 74 74 76 76 77 78 78 77 76 74 73 73 74 75 75 75 74 74 74 73 73 74 73 73 71 71 71 71 74 72 71 70 71 74
73 74 78 78 78 78 79 78 76 73 76 74 77 76 77 78 80 75 75 74 73 73 74 75 75 75 74 74 76 74 74 73 72 72 72 71 70 70 69 70 69 69 72
75 75 74 78 77 77 77 78 76 77 74 76 74 76 75 80 73 71 75 74 75 74 74 73 74 75 74 71 71 71 74 74 73 71 71 71 73 68 69 69 69 69 68
75 79 78 74 76 77 77 77 77 77 79 76 77 78 76 77 70 70 71 77 75 75 76 76 75 81 74 76 71 69 68 68 72 78 71 73 70 71 70 69 69 69 69
70 71 75 75 76 76 77 76 77 77 78 78 76 78 78 79 69 68 70 76 77 76 76 76 76 77 74 74 73 73 73 73 71 72 72 76 76 76 71 75 71 71 72
70 68 68 75 75 75 77 77 78 78 78 78 79 78 76 78 66 66 67 75 76 76 77 76 76 77 72 67 74 74 74 74 73 67 68 68 68 68 70 71 71 69 69
64 66 68 67 75 76 78 79 79 80 79 80 79 80 76 79 67 64 66 78 74 75 76 76 68 75 67 64 73 75 73 77 74 72 72 69 66 69 66 69 72 70 68
64 65 68 69 75 78 79 80 80 80 80 79 78 79 80 76 78 62 61 77 78 77 76 77 77 65 61 60 63 76 74 78 76 70 71 72 73 73 73 70 70 72 68
63 64 65 67 72 83 80 80 79 79 78 78 78 78 79 80 67 63 60 62 72 78 78 79 79 64 59 58 59 64 64 63 68 70 71 72 72 73 74 73 73 71 76
63 64 65 67 70 76 77 79 79 79 78 77 77 77 78 80 80 62 59 59 62 75 81 76 67 61 58 59 59 61 59 63 67 68 71 73 75 76 74 73 72 73 73
60 62 64 63 71 75 75 80 80 79 78 78 77 77 78 79 80 81 70 65 61 64 70 74 71 65 63 66 65 61 62 64 66 68 70 72 71 71 71 74 72 70 70
58 60 62 62 65 73 76 77 81 82 80 79 79 80 78 77 79 73 74 76 74 69 70 73 70 67 70 69 69 69 68 66 66 68 68 69 70 71 73 73 72 70 70
57 58 60 61 62 66 72 71 57 60 58 58 61 73 80 69 62 59 57 56 57 54 66 72 70 72 72 73 73 74 71 69 71 71 70 71 71 72 72 71 71 71 71
54 57 59 60 62 62 64 67 72 66 56 54 52 55 56 66 54 51 53 54 49 55 73 71 72 72 72 73 73 72 71 73 73 71 71 72 72 72 69 70 71 70 70
53 54 57 59 60 62 63 64 67 72 71 70 57 55 51 49 49 51 47 53 60 59 72 73 72 73 72 72 72 72 73 72 72 73 73 73 73 73 71 71 71 70 70
52 54 57 58 60 61 63 63 65 70 71 71 64 54 50 47 47 46 47 68 68 67 69 72 72 71 72 73 73 74 74 74 73 73 73 72 73 72 72 72 71 62 64
51 55 56 57 59 60 62 63 62 64 68 70 69 68 60 60 64 66 66 67 69 69 70 71 71 71 71 71 72 73 73 71 72 72 73 73 73 73 73 72 70 69 69
50 51 57 58 59 61 59 57 57 61 64 65 61 63 55 67 67 67 66 64 63 59 59 60 57 57 56 57 58 59 69 72 72 72 73 74 73 72 72 71 70 69 70
48 48 51 51 54 56 54 54 54 54 55 58 56 55 50 61 60 59 57 54 53 53 52 54 52 52 51 53 55 56 56 56 56 58 61 71 72 71 70 70 69 68 69
47 47 47 49 50 51 51 51 49 51 51 51 53 52 52 51 52 52 52 50 49 48 49 51 48 47 47 48 50 51 51 51 51 54 58 60 69 69 69 68 68 67 67
46 46 46 46 46 46 47 47 46 46 48 48 49 49 48 48 47 48 47 48 47 46 46 46 46 45 44 45 45 46 44 43 48 54 56 60 64 64 68 68 68 68 67
44 43 42 42 42 42 43 43 43 44 43 43 44 45 45 46 45 45 45 45 44 44 44 42 42 43 41 41 41 41 38 35 45 41 56 61 64 63 64 64 68 68 67
43 42 41 40 40 40 40 40 39 40 41 41 40 41 41 41 41 41 41 41 41 40 40 40 40 40 40 40 38 35 33 33 41 38 54 55 58 57 55 60 61 62 64
MSLP
1012.74 1013.60 1014.42 1015.04 1015.57 1015.92 1016.22 1016.39 1016.60 1016.70 1016.73 1016.94 1017.21 1017.52 1017.80 1018.11 1018.42 1018.80 1019.00 1019.18 1019.45 1019.60 1019.72 1019.86 1019.90 1019.93 1020.06 1020.21 1020.29 1020.31 1020.40 1020.56 1020.77 1020.10 1019.60 1018.76 1018.44 1018.11 1017.42 1017.19 1016.88 1016.52 1016.16
1012.04 1012.82 1013.72 1014.36 1015.03 1015.58 1015.85 1015.96 1016.25 1016.57 1016.61 1016.58 1016.85 1017.12 1017.41 1017.74 1018.06 1018.45 1018.78 1018.91 1019.17 1019.40 1019.44 1019.67 1019.71 1019.72 1019.74 1019.78 1020.05 1020.24 1020.24 1020.24 1020.50 1020.40 1019.74 1019.14 1018.63 1018.08 1017.74 1017.52 1016.90 1016.49 1016.30
1012.37 1012.40 1012.94 1013.66 1014.28 1014.84 1015.32 1015.65 1015.87 1016.12 1016.32 1016.36 1016.47 1016.78 1016.98 1017.31 1017.69 1018.03 1018.32 1018.56 1018.76 1018.94 1019.07 1019.26 1019.32 1019.51 1019.67 1019.56 1019.60 1019.82 1019.85 1019.82 1019.99 1020.09 1019.72 1019.10 1018.54 1018.13 1017.82 1017.53 1017.38 1016.74 1016.39
1011.61 1012.26 1012.37 1012.74 1013.34 1013.87 1014.49 1015.00 1015.36 1015.64 1015.95 1016.05 1016.12 1016.34 1016.62 1016.85 1017.17 1017.51 1017.85 1018.13 1018.33 1018.51 1018.69 1018.82 1018.94 1019.15 1019.33 1019.35 1019.42 1019.38 1019.38 1019.56 1019.60 1019.66 1019.50 1019.18 1018.80 1018.12 1018.15 1018.15 1017.74 1017.22 1016.65
1011.10 1011.60 1011.44 1011.75 1012.35 1012.97 1013.57 1014.22 1014.70 1015.04 1015.27 1015.57 1015.79 1015.99 1016.23 1016.50 1016.72 1017.01 1017.33 1017.56 1017.82 1018.04 1018.16 1018.32 1018.42 1018.52 1018.65 1018.71 1018.86 1018.88 1019.04 1019.17 1019.18 1019.24 1019.20 1018.97 1018.67 1018.48 1018.46 1018.00 1017.90 1017.47 1016.68
1010.25 1010.80 1010.95 1011.03 1011.55 1012.01 1012.65 1013.22 1013.82 1014.24 1014.67 1014.87 1015.14 1015.44 1015.74 1015.91 1016.10 1016.36 1016.72 1017.12 1017.26 1017.42 1017.66 1017.73 1017.87 1018.05 1018.07 1018.12 1018.17 1018.22 1018.36 1018.52 1018.53 1018.68 1018.69 1018.70 1018.18 1018.09 1017.91 1017.89 1017.69 1017.54 1017.11
1009.83 1010.71 1010.85 1010.95 1010.92 1011.17 1011.63 1012.28 1012.79 1013.25 1013.70 1014.19 1014.34 1014.66 1014.99 1015.21 1015.42 1015.73 1016.14 1016.52 1016.74 1016.87 1016.92 1017.07 1017.24 1017.33 1017.45 1017.60 1017.64 1017.65 1017.62 1017.65 1017.66 1017.73 1017.96 1017.70 1017.70 1017.35 1017.36 1017.30 1017.19 1017.14 1016.85
1010.27 1010.54 1010.49 1010.48 1010.36 1010.70 1011.04 1011.43 1011.79 1012.31 1012.72 1013.12 1013.56 1013.82 1014.08 1014.32 1014.72 1015.07 1015.44 1015.86 1016.00 1016.04 1016.16 1016.31 1016.46 1016.51 1016.62 1016.88 1017.09 1017.08 1016.90 1016.71 1016.60 1016.76 1016.99 1016.60 1016.52 1016.40 1016.62 1016.49 1016.57 1016.60 1016.30
1010.70 1010.77 1010.32 1010.12 1010.11 1010.02 1010.18 1010.50 1010.78 1011.33 1011.78 1012.02 1012.35 1012.83 1013.26 1013.56 1013.95 1014.37 1014.86 1015.26 1015.34 1015.37 1015.42 1015.53 1015.73 1015.83 1015.86 1016.17 1016.52 1016.60 1016.35 1015.87 1015.66 1015.86 1015.86 1015.75 1015.68 1015.69 1015.79 1016.23 1016.35 1016.47 1016.12
1011.23 1010.95 1009.69 1009.81 1009.55 1009.02 1009.03 1009.31 1009.73 1010.20 1010.48 1010.98 1011.30 1011.64 1012.05 1012.42 1012.92 1013.36 1013.98 1014.47 1014.80 1014.86 1014.81 1014.83 1014.92 1015.01 1015.13 1015.46 1015.76 1015.87 1015.86 1015.00 1015.23 1015.12 1015.28 1015.41 1015.39 1015.27 1015.30 1015.77 1015.76 1015.94 1015.87
1011.04 1009.82 1008.09 1008.57 1009.25 1007.96 1008.08 1008.25 1008.64 1009.15 1009.60 1010.04 1010.37 1010.69 1011.07 1011.54 1011.84 1012.35 1012.90 1013.52 1013.65 1013.85 1013.98 1013.90 1013.88 1013.97 1014.24 1014.56 1014.72 1014.98 1014.74 1014.48 1014.64 1014.88 1014.94 1014.93 1014.82 1014.74 1014.57 1014.57 1014.77 1015.05 1015.12
1011.03 1010.22 1009.09 1010.11 1008.51 1006.60 1007.20 1007.45 1007.77 1008.38 1008.78 1009.11 1009.51 1009.84 1010.01 1010.38 1010.86 1011.35 1011.85 1012.30 1012.42 1012.64 1012.73 1012.70 1012.75 1012.94 1013.23 1013.61 1014.10 1013.89 1013.94 1014.12 1014.59 1014.70 1014.75 1014.52 1014.29 1014.04 1013.71 1013.71 1013.61 1013.79 1013.60
1011.58 1010.76 1009.54 1008.48 1007.10 1005.81 1006.46 1006.42 1006.99 1007.49 1007.77 1008.18 1008.63 1008.93 1009.03 1009.38 1009.90 1010.31 1010.60 1011.00 1011.32 1011.74 1011.63 1011.62 1011.80 1012.14 1012.47 1012.70 1012.84 1012.90 1013.24 1013.89 1014.18 1014.30 1013.99 1013.60 1013.17 1013.00 1013.07 1013.12 1013.04 1012.91 1013.12
1011.04 1009.97 1008.87 1007.77 1005.90 1005.27 1005.57 1005.55 1005.79 1006.23 1006.71 1007.19 1007.63 1007.88 1008.19 1008.61 1008.85 1009.17 1010.01 1010.49 1010.70 1011.10 1010.93 1011.04 1011.17 1011.46 1011.72 1011.88 1012.19 1012.38 1012.66 1012.89 1013.09 1013.09 1012.97 1012.69 1012.71 1012.72 1012.58 1012.53 1012.82 1013.05 1013.32
1011.03 1009.40 1008.15 1007.57 1006.08 1005.16 1004.78 1004.36 1004.54 1004.59 1005.08 1005.66 1006.08 1006.70 1007.21 1007.42 1007.43 1008.01 1008.47 1009.15 1009.57 1009.82 1010.20 1010.82 1011.23 1011.52 1011.73 1011.83 1011.82 1011.76 1011.86 1012.16 1012.33 1012.18 1012.24 1012.30 1012.22 1012.19 1012.05 1011.93 1012.26 1012.67 1012.96
1010.57 1009.20 1008.74 1007.84 1006.55 1006.00 1005.32 1004.80 1004.40 1004.30 1004.45 1004.70 1004.94 1005.46 1005.91 1006.07 1006.65 1007.16 1007.60 1007.88 1008.25 1008.89 1010.16 1010.18 1010.41 1010.68 1010.86 1010.90 1010.94 1010.88 1010.90 1010.89 1010.80 1010.95 1011.08 1011.23 1011.40 1011.48 1011.54 1011.65 1011.73 1011.95 1012.18
1010.42 1009.59 1009.04 1008.41 1007.34 1006.68 1006.31 1005.56 1004.90 1004.74 1004.56 1004.64 1004.76 1004.94 1005.26 1005.54 1006.16 1006.58 1006.88 1007.19 1007.99 1009.12 1009.06 1009.37 1009.44 1009.66 1009.71 1009.72 1009.74 1009.76 1009.71 1009.51 1009.60 1009.92 1010.08 1010.23 1010.43 1010.68 1011.00 1011.15 1011.26 1011.52 1011.66
1010.84 1010.10 1009.37 1008.71 1007.96 1006.99 1006.68 1005.72 1005.07 1004.63 1004.45 1004.65 1004.63 1005.00 1005.06 1005.50 1005.61 1005.92 1006.90 1007.88 1008.72 1008.86 1008.64 1008.50 1008.50 1008.47 1008.54 1008.78 1009.02 1008.90 1008.86 1008.86 1008.97 1009.13 1009.36 1009.50 1009.63 1009.78 1010.11 1010.39 1010.52 1010.63 1010.90
1010.95 1010.36 1009.78 1009.08 1008.42 1007.26 1006.32 1005.55 1004.84 1004.51 1004.10 1003.98 1004.41 1004.94 1005.23 1005.20 1005.75 1006.38 1006.92 1007.18 1007.68 1007.62 1007.68 1007.55 1007.43 1007.66 1007.94 1008.07 1008.10 1008.03 1008.06 1008.33 1008.26 1008.26 1008.44 1008.74 1009.04 1009.34 1009.45 1009.38 1009.60 1010.00 1010.32
1011.05 1010.02 1009.65 1008.86 1008.26 1007.28 1006.47 1005.82 1005.30 1004.79 1004.15 1003.75 1003.61 1004.02 1005.04 1005.64 1006.10 1006.50 1007.05 1007.17 1007.64 1007.34 1007.36 1007.31 1007.21 1007.34 1007.56 1007.83 1007.84 1007.53 1007.54 1007.72 1007.83 1007.79 1007.72 1007.80 1007.88 1008.12 1008.48 1008.74 1009.02 1009.46 1009.94
1011.06 1010.12 1009.54 1008.81 1008.28 1007.73 1007.31 1006.75 1006.15 1005.57 1004.64 1003.95 1004.06 1004.24 1004.91 1005.38 1005.77 1006.57 1007.00 1007.53 1007.91 1008.16 1008.16 1007.99 1008.23 1008.13 1008.04 1007.99 1008.14 1008.16 1007.99 1007.74 1007.68 1007.60 1007.38 1007.00 1006.98 1007.40 1007.76 1008.22 1008.56 1008.78 1009.24
1010.58 1010.15 1009.75 1009.32 1008.81 1008.22 1007.56 1006.65 1006.53 1006.35 1005.43 1004.97 1005.37 1005.77 1005.64 1005.98 1006.69 1007.24 1007.66 1007.22 1007.17 1009.88 1009.32 1009.21 1009.29 1009.18 1009.18 1009.02 1008.51 1008.22 1008.20 1008.46 1008.53 1008.40 1008.46 1007.46 1006.86 1007.01 1007.64 1007.97 1008.29 1008.55 1008.76
1010.30 1010.48 1010.55 1009.47 1009.37 1008.76 1008.24 1007.32 1007.38 1007.78 1007.61 1007.68 1007.09 1006.88 1007.07 1007.58 1008.18 1008.97 1009.14 1009.61 1008.02 1009.80 1010.55 1010.62 1010.49 1010.39 1010.20 1009.76 1009.66 1009.95 1009.09 1008.69 1008.17 1008.41 1008.27 1008.10 1007.58 1007.49 1007.52 1007.82 1007.99 1008.18 1008.31
1010.96 1011.40 1011.40 1010.31 1010.02 1009.88 1009.44 1008.95 1009.11 1009.96 1009.62 1009.23 1009.18 1009.00 1008.14 1009.12 1009.12 1010.37 1010.65 1010.68 1011.09 1011.08 1012.04 1012.11 1011.93 1011.58 1011.05 1010.73 1010.64 1009.92 1009.72 1009.91 1009.59 1007.60 1007.22 1007.62 1007.80 1008.11 1008.06 1008.08 1007.96 1007.68 1007.80
1012.96 1012.21 1012.06 1011.18 1011.15 1010.99 1010.71 1010.55 1010.76 1011.01 1010.92 1011.07 1010.14 1011.14 1010.61 1011.05 1010.38 1010.63 1011.88 1011.50 1012.04 1011.98 1012.86 1012.58 1012.86 1012.32 1011.96 1011.79 1011.71 1011.22 1011.32 1010.42 1009.29 1008.04 1006.44 1007.53 1007.86 1008.33 1008.36 1008.30 1007.95 1007.70 1007.60
1013.62 1013.28 1012.70 1011.60 1011.71 1011.61 1012.01 1011.97 1012.20 1012.30 1012.09 1012.38 1012.15 1011.98 1011.65 1012.11 1012.00 1011.26 1011.87 1012.33 1011.05 1011.68 1012.16 1013.86 1014.15 1013.46 1011.58 1014.72 1012.56 1013.02 1010.59 1010.28 1009.93 1008.42 1006.72 1007.86 1008.65 1008.32 1008.61 1008.69 1008.25 1008.26 1007.99
Wind_Speed
18 17 15 13 8 7 8 8 6 6 7 7 9 9 9 7 7 6 6 6 6 5 3 4 5 3 3 2 2 1 1 2 2 4 3 3 4 6 7 4 6 6 6
18 17 16 14 13 8 7 8 7 7 6 10 8 11 10 8 7 7 7 6 7 6 6 5 6 3 5 4 2 4 2 2 2 4 3 3 4 5 5 6 5 4 5
14 16 15 15 15 15 11 7 6 7 8 7 7 10 10 9 8 7 7 7 7 7 6 6 7 6 6 4 4 4 3 2 3 3 4 2 3 2 4 3 3 4 4
14 16 16 17 16 16 15 10 8 7 7 8 7 9 9 9 9 9 7 7 7 7 7 6 7 7 7 7 5 6 4 4 3 3 3 4 3 3 1 2 5 2 5
16 16 19 16 16 15 16 14 11 9 10 8 10 8 9 9 9 8 8 8 7 7 7 7 7 8 10 9 5 6 5 4 4 4 4 3 3 3 3 2 3 3 4
17 19 16 16 15 15 15 16 14 14 10 9 10 10 11 9 12 14 10 7 8 8 8 7 7 8 9 12 12 11 8 6 6 3 3 5 8 4 3 2 2 2 3
4 13 15 14 15 16 15 16 16 16 15 13 12 13 12 12 13 15 15 8 8 9 10 8 7 8 9 7 9 11 12 14 14 9 7 8 5 5 3 3 3 3 4
4 3 7 13 17 15 16 16 17 14 16 14 13 13 14 12 14 16 15 11 9 10 11 11 11 10 8 8 7 8 8 8 8 7 10 13 9 8 6 7 4 4 3
2 2 7 11 16 16 17 18 17 15 14 15 14 14 14 13 15 17 12 10 11 11 10 10 11 12 11 13 8 10 10 11 7 12 13 13 14 13 10 0 5 2 3
8 11 7 10 17 19 19 18 17 15 15 12 14 15 16 16 16 18 16 10 10 9 9 10 14 15 14 13 11 10 11 15 7 6 5 7 10 9 13 8 5 6 3
9 12 7 11 21 19 19 16 16 16 14 14 14 14 15 15 16 19 19 13 11 10 10 10 10 16 18 15 17 11 13 12 11 5 5 5 5 5 5 5 7 6 4
11 8 6 20 17 16 18 16 16 15 15 14 13 11 11 14 15 16 19 21 17 13 11 10 11 14 16 16 11 16 16 9 3 5 5 7 7 7 6 5 6 8 8
11 10 7 12 14 14 15 16 13 14 13 12 11 11 11 10 10 18 20 21 22 14 13 13 13 13 14 12 16 15 7 4 6 6 9 10 9 7 4 2 0 2 3
11 11 9 10 9 10 10 12 12 12 12 11 11 11 10 9 10 10 9 10 17 13 15 11 9 8 10 9 6 5 5 6 7 7 7 6 3 3 4 4 4 4 3
10 10 10 7 9 6 10 12 14 15 15 14 12 11 11 11 12 12 12 9 10 13 10 7 5 4 6 6 5 6 5 5 6 6 6 6 5 4 6 4 3 3 4
12 9 7 8 7 7 5 5 4 5 14 14 15 13 11 14 13 15 16 16 17 11 4 8 8 9 10 9 9 9 7 9 9 8 7 7 7 6 6 3 3 5 7
10 9 7 7 6 6 6 6 7 1 2 9 14 16 16 12 14 12 16 17 5 10 8 7 9 8 9 9 9 8 9 9 8 8 8 8 7 6 4 4 5 5 5
8 12 7 7 6 6 6 6 6 4 6 5 7 9 11 12 10 14 8 10 3 4 7 8 9 9 8 8 7 8 7 5 6 7 7 7 7 6 4 5 6 7 6
7 6 6 6 7 6 4 5 5 7 6 5 3 1 4 8 8 6 12 4 6 6 8 9 7 6 7 8 7 7 7 7 7 6 6 5 6 5 7 6 5 7 4
7 12 9 5 5 5 4 5 6 6 5 5 6 4 5 3 4 4 2 1 2 1 2 4 3 2 2 2 4 4 5 5 5 5 6 7 6 6 6 6 4 4 5
4 5 10 4 4 4 3 5 6 6 4 7 7 3 8 5 6 5 4 7 7 7 5 6 5 4 3 3 2 3 4 2 3 4 4 6 5 4 5 4 4 4 5
4 4 5 5 5 5 5 6 7 7 8 8 8 11 14 10 8 5 5 8 11 7 6 6 5 6 5 5 5 3 5 4 4 5 7 5 3 4 4 3 3 4 4
5 5 4 6 6 8 7 8 11 9 8 8 7 9 10 9 10 8 9 8 11 9 8 6 6 6 5 6 6 6 5 3 4 2 4 6 7 4 2 4 4 4 4
7 6 5 6 8 7 7 9 9 9 8 8 8 8 8 10 10 10 8 8 9 9 6 6 7 10 8 7 5 5 6 6 6 0 4 2 4 7 5 3 4 6 5
5 6 6 7 7 7 7 9 8 8 8 9 8 7 8 5 9 8 7 7 7 9 10 9 7 10 13 14 13 12 7 11 5 3 4 4 3 4 5 6 6 5 5
6 6 6 8 8 8 8 8 8 8 8 8 7 7 7 7 7 9 8 6 9 10 11 8 8 13 19 10 15 17 12 12 13 9 8 6 5 6 4 4 8 6 7
Wind_Direction
188 192 197 201 204 200 201 205 203 205 202 197 191 192 188 190 186 184 196 199 207 228 235 227 260 261 252 253 299 303 146 151 202 297 263 284 291 306 316 312 282 288 297
192 188 195 197 207 203 209 205 192 196 203 202 188 195 190 193 189 190 201 200 199 214 231 221 247 262 278 240 213 256 259 196 181 269 277 294 271 297 291 303 321 322 340
203 195 192 198 200 210 212 211 213 199 205 199 181 193 193 192 190 199 199 202 203 213 220 218 230 229 255 258 247 252 232 230 200 221 271 266 281 312 328 317 294 314 312
200 204 197 195 201 205 211 201 204 212 198 207 199 197 200 202 199 201 202 204 210 214 222 222 226 218 225 234 240 245 255 265 257 258 281 283 255 307 302 272 311 301 318
200 202 205 200 197 200 205 209 208 208 214 190 200 201 200 200 207 200 202 210 208 220 223 224 228 226 221 220 216 241 232 240 249 256 270 266 273 297 278 276 271 287 293
195 207 209 197 196 197 201 206 207 212 215 206 196 198 200 209 203 200 194 200 218 221 228 233 233 234 240 240 243 241 221 226 248 220 240 256 279 242 246 254 267 310 321
188 216 206 210 203 200 196 200 206 213 217 219 216 209 205 210 203 204 203 210 209 221 228 230 232 238 225 233 238 239 238 234 241 246 244 251 255 250 225 267 251 237 241
14 302 268 217 207 205 200 202 207 206 211 213 215 218 219 219 203 209 208 218 221 223 222 223 228 238 224 216 229 246 252 243 230 221 227 257 247 256 208 258 238 247 276
321 309 325 245 220 201 203 206 206 205 208 213 213 211 211 221 202 207 199 219 228 229 227 225 222 235 234 212 226 247 260 265 247 234 232 234 244 249 246 319 275 253 279
323 300 287 331 228 209 205 204 205 206 210 208 215 215 215 220 205 206 198 217 226 234 236 238 224 230 224 205 217 235 252 259 256 266 262 255 247 256 253 211 236 242 228
304 297 307 313 275 215 210 203 202 206 209 209 213 213 214 211 218 203 198 210 224 225 232 238 236 221 228 218 213 223 231 257 261 240 247 248 250 244 243 205 208 209 206
306 306 266 265 269 214 209 204 203 204 207 211 213 214 217 219 212 205 202 204 216 225 229 231 240 221 220 219 214 237 244 252 267 256 252 255 248 242 241 220 214 214 219
295 279 271 284 262 217 207 201 199 201 203 207 209 216 221 216 219 212 204 206 219 223 232 233 226 219 218 227 228 238 223 202 229 239 246 250 242 245 245 218 0 153 153
313 306 310 305 286 209 203 201 198 198 203 205 209 216 220 221 222 220 210 213 226 221 243 242 237 212 201 211 216 215 201 194 198 219 232 245 243 214 225 196 182 174 161
313 320 334 321 343 299 213 200 199 202 199 200 205 208 209 220 222 215 213 207 213 219 220 234 227 205 225 229 228 223 210 199 209 217 218 230 228 226 241 187 183 152 193
326 336 327 322 345 337 301 235 61 231 204 205 199 201 217 224 204 203 213 211 207 163 170 217 221 229 232 236 235 239 223 217 226 219 211 212 220 218 229 190 175 195 208
320 319 315 304 318 320 329 320 219 264 119 218 220 216 217 212 209 214 219 220 191 140 216 207 221 217 224 225 224 223 233 227 212 211 210 210 213 216 195 197 203 209 227
305 298 305 309 302 314 296 297 299 240 201 203 218 228 236 233 231 226 126 118 125 216 219 221 218 218 215 217 225 223 232 227 206 212 212 214 208 205 189 214 202 202 211
305 296 297 293 283 273 306 320 309 283 225 204 139 96 108 129 127 135 155 201 214 202 207 220 216 209 217 223 225 225 224 227 218 201 202 194 211 199 225 220 201 200 174
291 298 289 274 288 304 346 349 339 320 274 213 189 178 129 136 164 174 186 356 269 195 207 215 199 214 249 307 285 252 223 210 210 207 206 198 206 198 216 214 182 171 204
304 321 344 0 320 355 32 29 5 1 352 60 37 55 143 131 120 115 84 73 46 42 26 40 42 57 72 94 70 14 348 337 327 294 254 218 194 192 208 185 186 192 216
330 330 0 2 352 9 1 51 33 18 18 42 53 43 50 62 57 48 62 92 91 19 30 45 52 50 32 18 16 73 100 66 29 18 333 311 217 173 172 180 193 217 207
8 11 340 33 14 4 22 35 42 10 25 27 43 64 59 54 62 50 50 33 60 59 25 31 37 37 27 37 29 360 14 31 127 168 11 347 335 306 194 204 201 212 215
26 30 19 47 34 23 26 43 54 22 19 42 32 32 77 85 76 62 53 59 49 59 41 35 30 33 25 19 8 26 16 343 287 28 110 34 13 353 303 267 246 221 216
26 42 37 56 49 37 33 47 41 51 34 28 50 31 26 38 93 74 84 104 98 70 45 38 18 30 32 29 17 14 332 323 340 298 73 23 54 1 355 332 313 286 248
44 58 62 61 53 51 43 50 40 46 47 40 42 36 69 41 44 62 60 79 66 65 66 43 45 38 43 350 13 336 355 345 344 8 53 53 34 51 21 330 354 337 323